This demonstration page uses our WeatherBlox Daily Observations layout. Learn more.

Left ArrowRight Arrow

39.51506, -84.39828

Hourly Observations for April 11, 2016

Temp ( °F °C ) Dew Point ( °F °C ) Humidity (%) Winds ( mph kmh ) Pressure ( in mb ) Visibility ( mi km ) Precip ( " mm )
12:15 am 00:15 Cloudy with Rain 55 12.5 46 8 74 74 SSW 9 15 29.94 1014 10 16 N/A
12:35 am 00:35 Cloudy with Light Rain 55 12.5 47 8.4 76 76 S 8 13 29.91 1013 10 16 N/A
12:55 am 00:55 Cloudy 55 12.5 45 7.4 71 71 SSW 8 13 29.94 1014 10 16 N/A
1:15 am 01:15 Cloudy with Light Rain 55 12.5 45 7.1 70 70 S 7 11 29.91 1013 10 16 N/A
1:35 am 01:35 Cloudy 55 12.5 43 6.2 66 66 SSW 7 11 29.91 1013 10 16 N/A
1:55 am 01:55 Mostly Cloudy 55 12.5 43 6.1 65 65 SSW 6 9 29.91 1013 10 16 N/A
2:15 am 02:15 Cloudy with Rain 55 12.5 45 7 69 69 SSW 6 9 29.91 1013 10 16 N/A
2:35 am 02:35 Cloudy 55 12.5 43 6.1 65 65 SSW 7 11 29.91 1013 10 16 N/A
2:55 am 02:55 Cloudy 55 12.5 41 5.2 61 61 SSW 10 17 29.88 1012 10 16 N/A
3:15 am 03:15 Cloudy with Light Rain 55 12.5 42 5.6 63 63 SSW 8 13 29.88 1012 10 16 N/A
3:35 am 03:35 Cloudy 57 13.7 42 5.7 59 59 SSW 12 19 29.88 1012 10 16 N/A
3:55 am 03:55 Cloudy with Drizzle 57 13.8 40 4.3 53 53 SSW 16 26 29.88 1012 10 16 N/A
4:15 am 04:15 Cloudy with Light Rain 56 13.5 44 6.5 63 63 SSW 15 24 29.91 1013 10 16 N/A
4:35 am 04:35 Cloudy with Light Rain 55 12.5 46 7.5 72 72 SSW 14 22 29.91 1013 10 16 N/A
4:55 am 04:55 Cloudy with Rain 55 12.5 47 8.4 76 76 SSW 9 15 29.91 1013 10 16 N/A
5:15 am 05:15 Cloudy 55 12.5 46 7.8 73 73 S 10 17 29.91 1013 10 16 N/A
5:35 am 05:35 Cloudy with Light Rain 55 12.5 46 8 74 74 SSW 12 19 29.91 1013 10 16 N/A
5:55 am 05:55 Cloudy 55 12.5 46 8 74 74 SSW 9 15 29.91 1013 10 16 N/A
6:15 am 06:15 Cloudy 55 12.5 45 7 69 69 SSW 12 19 29.91 1013 10 16 N/A
6:35 am 06:35 Cloudy 55 12.5 44 6.7 68 68 SSW 9 15 29.91 1013 10 16 N/A
6:55 am 06:55 Cloudy 55 12.5 44 6.8 68 68 SSW 9 15 29.91 1013 10 16 N/A
7:15 am 07:15 Cloudy with Light Rain 56 13.1 45 7.2 68 68 SSW 12 19 29.91 1013 10 16 N/A
7:35 am 07:35 Cloudy with Rain 55 12.5 45 7.4 71 71 SW 10 17 29.94 1014 10 16 N/A
7:55 am 07:55 Cloudy with Rain 55 12.5 47 8.5 77 77 SSW 15 24 29.91 1013 10 16 N/A
8:15 am 08:15 Cloudy with Light Rain 55 12.5 47 8.5 77 77 SSW 15 24 29.91 1013 10 16 N/A
8:35 am 08:35 Cloudy with Rain 55 12.5 49 9.3 81 81 SSW 17 28 29.91 1013 7 11 N/A
8:55 am 08:55 Cloudy with Rain 55 12.5 49 9.7 83 83 SW 16 26 29.94 1014 10 16 N/A
9:15 am 09:15 Cloudy with Drizzle 55 12.5 49 9.7 83 83 SW 18 30 29.94 1014 10 16 N/A
9:35 am 09:35 Cloudy with Drizzle 55 12.5 50 9.8 84 84 SW 15 24 29.94 1014 10 16 N/A
9:55 am 09:55 Mostly Cloudy with Light Rain 57 13.8 52 11.1 84 84 SW 16 26 29.94 1014 10 16 N/A
10:15 am 10:15 Cloudy with Light Rain 57 13.8 52 11.1 84 84 SW 16 26 29.91 1013 10 16 N/A
10:35 am 10:35 Cloudy with Drizzle 57 13.8 52 11.1 84 84 SSW 15 24 29.91 1013 10 16 N/A
10:55 am 10:55 Mostly Cloudy 59 15 53 11.5 80 80 SW 20 31 29.88 1012 10 16 N/A
11:15 am 11:15 Cloudy 60 15.3 53 11.6 79 79 SW 16 26 29.88 1012 10 16 N/A
11:35 am 11:35 Cloudy with Light Rain 58 14.6 51 10.6 77 77 SW 16 26 29.88 1012 10 16 N/A
11:55 am 11:55 Cloudy with Rain 60 15.3 52 11.2 77 77 SW 16 26 29.88 1012 10 16 N/A
12:15 pm 12:15 Cloudy with Light Rain 60 15.3 53 11.7 79 79 WSW 14 22 29.88 1012 7 11 N/A
12:35 pm 12:35 Cloudy with Drizzle 60 15.3 53 11.5 78 78 SW 15 24 29.88 1012 10 16 N/A
12:55 pm 12:55 Cloudy 60 15.3 52 11.2 77 77 SW 14 22 29.88 1012 10 16 N/A
1:15 pm 13:15 Cloudy 60 15.3 52 11.1 76 76 SW 12 19 29.88 1012 10 16 N/A
1:35 pm 13:35 Cloudy with Rain 60 15.3 53 11.8 80 80 WSW 17 28 29.88 1012 4 6 N/A
1:55 pm 13:55 Cloudy with Rain 60 15.3 55 12.5 84 84 SW 12 19 29.88 1012 5 8 N/A
2:15 pm 14:15 Cloudy with Rain 57 13.8 52 11.1 84 84 SW 9 15 29.91 1013 10 16 N/A
2:35 pm 14:35 Cloudy with Rain 57 13.8 52 11.2 84 84 SW 12 19 29.94 1014 4 6 N/A
2:55 pm 14:55 Cloudy with Rain 57 13.8 53 11.5 86 86 SW 7 11 29.91 1013 7 11 N/A
3:15 pm 15:15 Cloudy with Rain 57 13.8 53 11.6 87 87 SW 9 15 29.91 1013 10 16 N/A
3:35 pm 15:35 Cloudy with Light Rain 57 13.8 53 11.7 87 87 SW 10 17 29.91 1013 5 8 N/A
3:55 pm 15:55 Cloudy with Light Rain 57 13.8 53 11.7 87 87 SW 10 17 29.91 1013 4 6 N/A
4:15 pm 16:15 Cloudy with Rain 57 13.8 53 11.8 88 88 SW 7 11 29.91 1013 4 6 N/A
4:35 pm 16:35 Cloudy with Rain 57 13.8 54 12 89 89 SW 5 7 29.91 1013 3 5 N/A
4:55 pm 16:55 Mostly Cloudy with Light Rain 55 12.6 51 10.5 87 87 NW 13 20 29.91 1013 5 8 N/A
5:15 pm 17:15 Cloudy with Rain 55 12.5 51 10.3 87 87 NW 6 9 29.91 1013 5 8 N/A
5:35 pm 17:35 Cloudy with Light Rain 55 12.5 51 10.4 87 87 NW 6 9 29.91 1013 10 16 N/A
5:55 pm 17:55 Cloudy with Rain 55 12.5 51 10.3 87 87 NW 6 9 29.91 1013 10 16 N/A
6:15 pm 18:15 Cloudy with Light Rain 55 12.5 51 10.3 87 87 NNW 6 9 29.94 1014 7 11 N/A
6:35 pm 18:35 Cloudy with Rain 52 11 48 8.8 86 86 N N/A 29.94 1014 7 11 N/A
6:55 pm 18:55 Partly Cloudy with Light Rain 52 11 48 9 88 88 NW 3 6 29.94 1014 10 16 N/A
7:15 pm 19:15 Mostly Cloudy with Rain 51 10.4 47 8.2 86 86 WNW 3 6 29.97 1015 10 16 N/A
7:35 pm 19:35 Mostly Cloudy with Light Rain 49 9.6 45 7.2 85 85 N N/A 29.97 1015 10 16 N/A
7:55 pm 19:55 Cloudy with Light Rain 49 9.6 46 7.5 87 87 N N/A 29.97 1015 10 16 N/A
8:15 pm 20:15 Cloudy with Light Rain 49 9.6 46 7.5 87 87 N N/A 29.97 1015 7 11 N/A
8:35 pm 20:35 Mostly Cloudy 49 9.6 46 7.5 87 87 N N/A 29.97 1015 10 16 N/A
8:55 pm 20:55 Cloudy 49 9.6 46 7.5 87 87 N N/A 29.97 1015 10 16 N/A
9:15 pm 21:15 Cloudy 49 9.6 45 7.3 86 86 WNW 3 6 30.00 1016 10 16 N/A
9:35 pm 21:35 Mostly Cloudy 49 9.6 45 7 84 84 WNW 7 11 30.03 1017 10 16 N/A
9:55 pm 21:55 Partly Cloudy 49 9.6 44 6.7 82 82 N N/A 30.03 1017 10 16 N/A
10:15 pm 22:15 Clear 49 9.6 44 6.5 81 81 N N/A 30.03 1017 10 16 N/A
10:35 pm 22:35 Clear 49 9.6 43 6.2 80 80 W 5 7 30.06 1018 10 16 N/A
10:55 pm 22:55 Clear 49 9.6 43 6.2 80 80 W 5 7 30.06 1018 10 16 N/A
11:15 pm 23:15 Clear 48 9.1 42 5.6 79 79 WNW 6 9 30.06 1018 10 16 N/A
11:35 pm 23:35 Clear 47 8.2 40 4.2 76 76 WNW 7 11 30.09 1019 10 16 N/A
11:55 pm 23:55 Clear 47 8.2 40 4.2 76 76 NW 8 13 30.09 1019 10 16 N/A

Powered by AerisWeather